CAPE
10 19 6 0 6 13 5 0 0 0 0 14 7 0 0 315 639 641 331 40 123 387 493 455 352 346 318 92 12 68 62 28 0 0 0 0 0 0 0 0 0 0 0 0
0 1 0 0 21 11 7 0 0 0 0 0 5 3 0 233 346 456 193 29 46 82 82 208 193 167 180 88 50 9 48 21 0 0 0 0 0 0 0 0 0 0 0 0
0 0 0 0 4 0 0 0 0 0 0 0 0 0 0 1 85 192 101 77 11 30 43 42 156 119 41 92 92 52 64 29 0 0 0 0 0 0 0 0 0 0 0 0
0 0 0 0 0 0 0 0 0 0 0 0 0 0 0 0 0 177 179 151 100 15 12 28 182 148 86 117 149 209 150 41 0 0 18 0 0 0 0 0 0 0 0 0
0 0 0 0 0 0 0 0 0 0 0 0 0 0 0 0 0 0 196 173 159 98 51 160 169 178 146 115 200 229 297 194 88 4 16 0 0 0 0 0 0 0 0 0
0 0 0 0 0 0 0 0 0 0 2 0 0 0 0 0 0 0 1 4 194 213 78 357 465 266 189 155 174 276 246 212 131 76 38 9 0 0 0 0 0 0 0 0
0 0 0 0 0 0 3 1 2 1 0 0 0 0 0 0 0 0 0 1 1 303 326 448 663 679 551 398 260 293 309 278 200 79 77 2 0 0 0 0 0 0 0 0
0 0 0 0 0 0 0 0 0 0 0 0 1 0 0 0 0 0 0 0 102 323 472 544 686 696 711 606 443 336 301 225 78 6 1 0 0 0 0 0 0 0 0 0
0 0 2 0 0 0 0 0 0 0 0 0 0 0 0 2 0 0 0 0 129 415 609 650 600 575 627 412 295 334 249 53 0 0 0 0 0 0 0 0 0 0 0 0
0 0 0 1 0 0 0 0 0 3 0 0 0 0 0 17 7 2 2 1 46 342 555 590 605 634 466 292 185 111 20 0 0 0 0 0 0 0 0 0 0 0 0 0
0 1 0 0 0 2 0 0 0 0 0 0 4 0 0 0 5 3 63 8 164 309 476 620 694 546 316 99 14 0 0 0 0 0 0 0 0 0 0 0 0 0 0 0
0 0 0 0 0 1 0 0 4 6 0 0 0 0 0 0 0 2 124 262 329 349 331 474 496 446 245 91 0 0 0 0 0 0 0 0 0 0 0 0 0 0 0 0
1 3 2 0 0 3 4 0 0 0 0 0 0 0 0 0 0 0 77 248 360 305 172 55 48 155 103 9 0 0 0 0 0 0 0 0 0 0 0 0 0 0 0 0
2 0 0 0 0 0 0 0 1 0 0 0 0 0 0 0 0 0 0 0 118 253 81 3 0 0 0 0 0 0 0 0 0 0 0 0 0 0 0 0 0 0 0 0
0 0 0 0 0 0 0 0 1 0 0 0 0 0 0 0 0 0 0 0 0 8 11 0 0 0 0 0 0 0 0 0 0 0 0 0 0 0 0 0 0 0 0 0
0 0 0 0 0 0 0 0 0 0 0 0 0 0 0 0 0 0 0 0 0 0 0 0 0 0 0 0 0 0 0 0 0 0 0 0 0 0 0 0 0 0 0 0
0 0 0 0 0 0 0 0 0 0 0 0 0 0 0 0 0 0 0 0 0 0 0 0 0 0 0 0 0 0 0 0 0 0 0 0 0 0 0 0 0 0 0 0
0 0 0 0 0 0 0 0 0 0 0 0 0 0 0 0 0 0 0 0 0 0 0 0 0 0 0 0 0 0 0 0 0 0 0 0 0 0 0 0 0 0 0 0
1 0 0 0 0 0 0 0 0 0 0 0 0 0 0 0 0 0 0 0 0 0 0 0 0 0 0 0 0 0 0 0 0 0 0 0 0 0 0 0 0 0 0 0
0 0 0 0 0 0 0 0 0 0 0 0 0 0 0 0 0 0 0 0 0 0 0 0 0 0 0 0 0 0 0 0 0 0 0 0 0 0 0 0 0 0 0 0
0 0 0 0 0 0 0 0 0 0 0 0 0 0 0 0 0 0 0 0 0 0 0 0 0 0 0 0 0 0 0 0 0 0 0 0 0 0 0 0 0 0 0 0
0 0 0 0 0 0 0 0 0 0 0 0 0 0 0 0 0 0 0 0 0 0 0 0 0 0 0 0 0 0 0 0 0 0 0 0 0 0 0 0 0 0 0 0
0 0 0 0 0 0 0 0 0 0 0 0 0 0 0 0 0 0 0 0 0 0 0 0 0 0 0 0 0 0 0 0 0 0 0 0 0 0 0 0 0 0 0 0
0 0 0 0 0 0 0 0 0 0 0 0 0 0 0 0 0 0 0 0 0 0 0 0 0 0 0 0 0 0 0 0 0 0 0 0 0 0 0 0 0 0 0 0
0 0 0 0 0 0 0 0 0 0 0 0 0 0 0 0 0 0 0 0 0 0 0 0 0 0 0 0 0 0 0 0 0 0 0 0 0 0 0 0 0 0 0 0
0 0 0 0 0 0 0 0 0 0 0 0 0 0 0 0 0 0 0 0 0 0 0 0 0 0 0 0 0 0 0 0 0 0 0 0 0 0 0 0 0 0 0 0
CIN
-98 -66 -82 -0 -68 -60 -51 0 0 0 0 -21 -9 0 0 -67 -84 -52 -69 -131 -117 -77 -104 -151 -207 -201 -165 -199 -179 -219 -245 -286 0 0 0 0 0 0 0 0 0 0 0 0
0 -12 0 0 -35 -35 -37 0 0 0 0 0 -42 -20 0 -62 -69 -67 -113 -140 -140 -151 -165 -179 -226 -237 -252 -304 -277 -289 -249 -293 0 0 0 0 0 0 0 0 0 0 0 0
0 0 0 0 -12 -6 0 0 0 0 -2 0 0 0 0 -10 -70 -56 -104 -121 -152 -166 -195 -251 -240 -262 -304 -304 -287 -283 -253 -256 0 0 0 0 0 0 0 0 0 0 0 0
0 0 0 -2 0 0 0 0 0 0 -2 0 0 0 0 0 0 -48 -71 -118 -139 -187 -206 -249 -242 -286 -322 -315 -270 -215 -220 -217 0 0 -197 0 0 0 0 0 0 0 0 0
0 0 0 0 0 0 0 0 0 0 0 0 0 -12 0 -55 0 0 -47 -85 -119 -153 -190 -238 -276 -274 -298 -316 -250 -212 -137 -126 -162 -201 -188 -91 0 0 0 0 0 0 0 0
0 0 0 0 0 0 0 0 0 -13 -22 0 0 0 0 0 0 -5 -23 -63 -106 -163 -205 -208 -240 -266 -243 -250 -249 -170 -128 -135 -143 -142 -160 -183 0 0 0 0 0 0 0 0
0 0 0 0 0 0 -27 -28 -20 -5 0 0 0 0 0 0 0 0 0 -74 -40 -143 -177 -216 -176 -170 -180 -198 -225 -166 -119 -113 -117 -138 -120 -70 0 0 0 0 0 0 0 0
0 0 0 0 0 0 0 0 -12 -0 0 0 -13 -2 -4 0 0 0 0 0 -162 -160 -177 -190 -183 -183 -164 -181 -166 -160 -142 -112 -143 -169 -16 0 0 0 0 0 0 0 0 0
0 0 -72 -11 0 0 -6 0 0 -7 0 0 0 0 0 -13 0 0 0 0 -174 -167 -171 -176 -205 -207 -185 -197 -172 -111 -91 -138 0 0 0 0 0 0 0 0 0 0 0 0
0 0 -4 -34 0 0 0 0 -6 -2 0 0 0 0 0 -34 -27 -57 -45 -22 -195 -172 -150 -157 -177 -166 -170 -177 -165 -142 -97 0 0 0 0 0 0 0 0 0 0 0 0 0
0 -17 0 0 0 -12 0 0 0 0 0 0 -42 0 0 0 -29 -22 -86 -142 -158 -161 -154 -139 -159 -200 -227 -278 -276 -0 0 0 0 0 0 0 0 0 0 0 0 0 0 0
0 0 0 0 0 -32 -3 -5 -35 -25 0 0 0 0 0 0 0 -10 -47 -84 -112 -154 -174 -163 -188 -211 -256 -274 0 0 0 0 0 0 0 0 0 0 0 0 0 0 0 0
-4 -38 -14 0 0 -11 -62 0 0 0 0 0 0 0 0 0 0 0 -42 -55 -83 -133 -183 -264 -253 -185 -197 -233 0 0 0 0 0 0 0 0 0 0 0 0 0 0 0 0
-13 -19 0 0 0 0 0 -17 -9 0 0 0 0 0 0 0 0 0 0 0 -82 -73 -118 -92 0 0 0 0 0 0 0 0 0 0 0 0 0 0 0 0 0 0 0 0
-2 0 0 0 0 0 0 0 -19 0 0 0 0 0 0 0 0 0 0 0 0 -110 -147 0 0 0 0 0 0 0 0 0 0 0 0 0 0 0 0 0 0 0 0 0
0 0 0 0 0 0 0 0 0 0 0 0 0 0 0 0 0 0 0 0 0 0 0 0 0 0 0 0 0 0 0 0 0 0 0 0 0 0 0 0 0 0 0 0
0 0 0 0 0 0 0 0 0 0 0 0 0 0 0 0 0 0 0 0 0 0 0 0 0 0 0 0 0 0 0 0 0 0 0 0 0 0 0 0 0 0 0 0
0 0 0 0 0 0 0 0 0 0 0 0 0 0 0 0 0 0 0 0 0 0 0 0 0 0 0 0 0 0 0 0 0 0 0 0 0 0 0 0 0 0 0 0
-50 0 0 0 0 0 0 0 0 0 0 0 0 0 0 0 0 0 0 0 0 0 0 0 0 0 0 0 0 0 0 0 0 0 0 0 0 0 0 0 0 0 0 0
0 0 0 0 0 0 0 0 0 0 0 0 0 0 0 0 0 0 0 0 0 0 0 0 0 0 0 0 0 0 0 0 0 0 0 0 0 0 0 0 0 0 0 0
0 0 0 0 0 0 0 0 0 0 0 0 0 0 0 0 0 0 0 0 0 0 0 0 0 0 0 0 0 0 0 0 0 0 0 0 0 0 0 0 0 0 0 0
0 0 0 0 0 0 0 0 0 0 0 0 0 0 0 0 0 0 0 0 0 0 0 0 0 0 0 0 0 0 0 0 0 0 0 0 0 0 0 0 0 0 0 0
0 0 0 0 0 0 0 0 0 0 0 0 0 0 0 0 0 0 0 0 0 0 0 0 0 0 0 0 0 0 0 0 0 0 0 0 0 0 0 0 0 0 0 0
0 0 0 0 0 0 0 0 0 0 0 0 0 0 0 0 0 0 0 0 0 0 0 0 0 0 0 0 0 0 0 0 0 0 0 0 0 0 0 0 0 0 0 0
0 0 0 0 0 0 0 0 0 0 0 0 0 0 0 0 0 0 0 0 0 0 0 0 0 0 0 0 0 0 0 0 0 0 0 0 0 0 0 0 0 0 0 0
0 0 0 0 0 0 0 0 0 0 0 0 0 0 0 0 0 0 0 0 0 0 0 0 0 0 0 0 0 0 0 0 0 0 0 0 0 0 0 0 0 0 0 0
Wind_Speed
14 15 18 17 22 23 21 19 20 23 22 8 10 11 14 14 15 19 18 17 18 21 22 24 22 22 22 20 19 19 17 16 15 12 10 9 8 7 8 7 8 8 8 9
18 17 17 20 19 20 18 21 24 23 24 5 19 13 22 13 16 19 19 17 17 16 18 21 20 21 21 20 17 15 16 15 13 13 10 7 7 7 6 6 7 8 9 9
19 21 20 21 19 21 20 24 22 21 20 13 6 13 10 9 21 25 22 19 17 15 17 18 19 19 18 16 16 15 14 13 12 10 7 6 7 8 7 5 5 6 7 7
19 22 23 20 22 21 23 23 25 23 17 15 15 16 18 28 29 26 22 19 17 14 15 14 16 15 15 14 14 13 11 10 10 9 4 2 2 4 3 3 5 5 5 6
17 18 16 19 25 23 22 19 24 24 19 17 5 18 23 24 13 14 21 20 18 17 19 15 14 14 13 11 12 12 12 10 9 9 5 2 2 2 2 2 2 4 7 8
19 17 15 20 23 24 22 21 16 11 13 19 20 18 22 19 13 16 16 10 20 18 11 9 6 6 9 10 7 11 11 10 7 7 6 4 3 1 1 2 2 6 8 11
20 21 14 13 19 18 18 17 18 16 18 22 17 17 25 22 24 16 24 3 7 14 13 10 12 12 11 12 7 9 9 7 6 5 5 4 4 3 4 4 5 7 10 12
16 17 21 16 13 18 22 12 10 19 22 24 17 24 21 26 24 14 9 2 2 8 14 14 15 11 11 8 7 6 6 4 4 3 4 4 5 6 5 5 6 8 9 11
17 19 21 22 15 16 19 15 14 14 16 22 21 23 25 22 16 10 8 7 3 9 12 13 12 11 7 5 5 4 2 1 2 3 4 4 4 4 6 7 9 10 11 14
22 20 22 21 18 18 8 12 14 17 17 21 20 24 18 14 13 13 15 8 5 9 10 9 9 8 6 3 2 1 2 2 2 2 3 3 4 6 8 9 10 10 14 18
19 20 23 22 17 4 16 14 14 12 16 22 21 19 16 8 10 8 6 8 9 9 9 10 8 6 4 1 1 2 2 3 3 3 3 4 6 7 8 10 12 15 16 19
16 19 21 14 7 18 12 13 9 10 14 19 18 23 17 14 5 8 4 9 7 8 7 6 4 3 2 2 1 2 3 4 5 4 4 5 6 9 10 13 15 16 23 25
7 17 21 20 24 20 15 8 16 19 18 22 20 21 16 17 17 11 1 3 7 8 4 3 5 4 5 5 5 5 6 6 5 5 6 7 8 10 12 14 16 21 24 23
3 12 17 18 19 15 15 19 20 20 17 15 16 21 21 31 30 19 13 4 5 5 5 7 7 7 8 8 8 8 7 6 5 6 8 9 10 10 13 15 18 23 19 20
14 15 16 16 19 21 24 24 20 21 22 17 22 15 21 21 16 14 11 12 16 14 14 13 10 10 11 11 11 11 10 8 8 9 11 12 12 12 15 18 18 22 20 23
20 23 20 21 21 22 26 26 24 21 20 18 20 21 21 11 11 13 14 13 15 16 18 20 16 9 11 12 12 12 11 10 9 11 12 12 13 17 18 21 21 23 27 27
17 18 20 26 24 26 35 23 24 26 22 20 20 14 12 11 13 14 14 14 15 18 20 22 23 18 13 10 9 10 9 10 10 10 11 11 12 16 18 19 23 26 26 26
13 14 17 22 21 28 22 20 13 12 16 10 7 10 8 8 11 13 14 15 18 19 21 23 23 22 20 16 14 12 10 9 9 11 12 14 14 17 20 22 23 25 26 29
12 10 17 20 19 26 24 12 10 12 13 10 7 8 8 9 13 17 17 18 18 19 21 22 23 23 22 18 14 11 10 9 10 12 14 16 16 18 21 22 26 28 27 27
14 14 15 16 20 21 21 15 11 9 13 9 8 11 13 13 20 20 21 17 20 21 22 22 22 21 20 19 15 13 12 12 12 12 13 16 18 21 24 26 26 26 24 28
17 16 15 17 21 26 22 12 12 12 15 7 9 11 14 19 18 19 16 20 20 21 21 21 20 21 20 18 16 16 15 14 14 14 18 21 21 23 25 25 24 25 27 29
11 12 16 18 21 29 13 11 15 12 9 8 11 13 14 16 19 18 19 20 20 21 21 21 20 21 19 18 17 16 16 15 16 19 21 22 23 23 22 23 25 27 27 28
13 9 9 8 15 19 14 12 6 5 7 11 12 13 15 16 19 19 19 20 20 20 20 20 19 19 20 20 20 19 19 20 21 22 22 21 21 22 23 26 27 27 29 30
15 8 11 10 17 11 9 9 8 9 9 12 14 15 15 17 18 19 19 19 19 20 21 19 20 21 21 21 21 20 20 20 21 22 23 23 25 26 26 26 28 30 30 31
14 7 9 14 11 9 12 11 9 10 12 14 16 17 17 17 19 18 18 19 20 20 20 20 20 21 21 21 21 21 21 21 24 25 26 26 27 28 29 30 30 30 29 29
14 11 11 16 7 14 11 11 10 12 15 15 16 18 19 18 18 18 19 18 19 19 20 21 21 21 22 23 25 25 24 24 26 28 29 29 30 31 32 33 33 30 30 29
Wind_Direction
222 245 225 224 215 210 219 239 240 240 260 335 130 124 131 127 130 141 131 123 128 140 142 148 144 142 142 140 135 136 131 130 125 119 110 94 88 65 46 57 48 49 45 34
247 237 222 212 219 222 252 245 236 250 258 327 171 150 172 148 154 152 142 139 135 132 140 147 144 147 149 147 144 140 144 142 138 136 119 79 86 48 60 52 37 34 37 42
235 211 231 218 241 235 243 237 247 257 268 269 27 307 134 144 174 171 167 157 150 144 144 148 152 154 152 151 153 153 153 151 147 138 117 37 27 21 12 32 48 48 51 42
235 240 235 255 240 238 235 225 228 254 285 301 312 304 250 204 199 183 177 171 167 160 158 154 157 155 160 160 159 161 154 153 156 151 135 118 45 360 13 62 52 52 46 26
256 253 265 252 231 243 221 263 239 245 279 306 319 279 248 227 168 173 186 189 182 176 172 166 168 169 166 159 163 163 163 166 171 180 180 181 334 359 44 47 39 13 2 4
266 266 275 242 245 247 270 271 291 342 334 295 294 298 285 189 188 181 177 173 186 187 182 175 171 163 163 161 159 166 172 181 183 183 189 211 216 259 294 311 329 341 346 348
264 256 284 288 262 271 276 296 290 302 297 288 320 303 280 219 215 187 202 271 170 177 180 176 168 163 163 171 167 167 178 191 188 189 214 228 235 260 266 282 312 328 335 336
270 265 243 274 301 290 283 317 335 300 292 290 331 277 278 270 234 181 328 18 55 151 168 171 170 170 169 174 172 179 186 189 199 230 258 270 281 297 312 317 324 330 333 340
268 265 267 265 296 307 295 314 312 319 323 300 304 280 285 301 321 338 340 332 56 133 148 155 164 170 174 176 175 181 183 217 274 309 318 319 324 328 331 340 337 336 339 339
264 276 269 282 298 299 315 337 310 311 308 301 298 285 309 320 328 323 308 330 111 132 137 144 155 162 165 171 180 269 285 234 269 317 327 325 322 324 326 329 331 332 330 332
260 274 278 291 299 251 299 307 312 320 311 294 299 306 308 357 356 20 87 113 122 132 137 139 139 145 153 163 263 291 248 240 259 270 279 288 302 313 317 319 325 324 328 327
262 273 275 292 292 284 330 309 317 315 310 295 302 290 308 318 346 347 69 147 144 156 158 161 163 162 169 192 259 252 230 226 235 248 276 293 300 306 310 319 324 325 322 322
251 276 274 276 278 294 298 312 300 292 297 289 298 301 318 310 312 316 195 177 177 181 201 270 285 236 235 246 243 236 239 246 268 273 287 300 302 309 311 319 321 324 323 324
241 294 279 268 277 297 306 293 291 290 294 304 300 300 302 288 288 298 319 335 192 209 254 269 277 271 269 261 260 276 280 267 261 268 282 285 292 303 312 319 325 329 332 334
283 287 286 288 287 288 282 284 289 296 298 301 297 304 305 304 314 316 324 337 336 329 319 313 303 289 285 285 287 289 284 278 274 288 303 310 314 318 328 331 328 336 332 334
278 279 287 285 290 291 287 286 291 293 303 307 304 303 302 317 331 339 342 345 346 351 349 349 353 321 297 288 289 287 285 289 290 300 309 316 323 331 333 337 334 334 330 330
284 288 288 283 290 290 273 288 288 288 292 299 295 307 316 322 327 333 343 352 350 344 345 346 346 347 341 322 302 294 294 298 300 304 313 315 321 325 327 330 332 335 335 332
288 291 294 292 295 284 296 302 307 308 306 310 318 315 328 347 350 354 352 348 343 344 343 343 346 348 346 340 335 333 332 326 322 322 323 325 326 332 337 337 337 336 332 329
293 296 299 293 292 294 294 299 296 300 307 320 332 328 335 351 346 338 343 346 349 348 347 347 347 346 348 350 353 355 350 346 338 334 335 337 337 337 338 335 325 328 328 331
294 297 292 301 297 297 299 285 307 307 295 314 326 321 323 333 318 325 334 347 347 348 347 347 350 356 358 357 4 4 356 349 342 340 343 343 340 334 328 327 329 331 333 333
286 292 285 291 293 291 287 297 300 285 301 321 332 334 330 324 332 336 350 347 349 350 353 357 358 360 1 4 7 2 359 353 350 349 340 335 332 330 330 332 334 335 333 333
284 289 292 293 290 281 295 290 284 305 329 337 331 332 338 341 342 347 348 349 350 352 357 359 1 3 6 8 8 3 353 349 343 337 334 332 333 334 336 335 334 335 336 336
291 301 305 306 304 298 294 304 336 348 343 330 336 340 342 344 345 348 350 352 353 355 358 3 5 7 4 0 358 353 347 343 339 337 337 339 340 338 337 334 334 334 333 332
288 302 311 309 304 313 320 326 330 335 342 343 341 342 346 346 347 349 351 353 354 355 355 360 359 358 356 356 354 351 350 350 348 344 342 340 337 335 335 335 332 330 330 330
283 270 300 306 313 321 314 319 330 339 342 343 344 345 346 349 348 351 351 351 352 354 356 356 356 355 354 355 354 353 351 350 344 342 339 337 335 333 331 329 328 327 327 327
277 270 273 293 276 303 305 316 326 329 330 336 341 344 347 350 350 352 352 354 355 355 356 356 355 356 355 351 348 349 349 346 340 337 335 333 331 329 328 326 325 325 321 320